User: anonymous   Login
Location: Prairie State College
(41.5244°N, 87.6382°W)
Time: 14:43:29
(UTC-05:00)
Language:

ARGOS Delta rocket - Orbit

View from above orbital plane
View from above orbital plane
View from above satellite
View from above satellite

Ground track
Ground track

The orbit data is extracted from the following two-line orbital elements,

1 25637U 99008D   17233.23017860  .00000085  00000-0  28172-4 0  9999
2 25637  96.4748 118.1100 0144377  74.4078  35.2604 14.46527947975012
Epoch (UTC): 21 August 2017 05:31:27
Eccentricity: 0.0144377
inclination: 96.4748°
perigee height: 634 km
apogee height: 840 km
right ascension of ascending node: 118.1100°
argument of perigee: 74.4078°
revolutions per day: 14.46527947
mean anomaly at epoch: 35.2604°
orbit number at epoch: 97501

The dashed part of the orbit path shows where the satellite is in the earth's shadow,  

DLR